FW1286 Weather Reports


Display with metric or nautical units.
time (UTC)temp
F
wind
direction
speed
MPH
gust
MPH
rain 1hr
in
rain 24hr
in
rain mn
in
humidity
%
barometer
mb
20260905185119 92 175 3.0 10.0 0.00 0.00 0.00 55 1012.0
20260905184114 92 166 4.0 11.0 0.00 0.00 0.00 55 1012.2
20260905183120 92 182 5.0 11.0 0.00 0.00 0.00 55 1012.3
20260905182135 92 166 3.0 9.0 0.00 0.00 0.00 53 1012.4
20260905181101 92 123 3.0 8.0 0.00 0.00 0.00 57 1012.6
20260905180030 92 125 3.0 10.0 0.00 0.00 0.00 57 1012.8
20260905175013 91 130 6.0 13.0 0.00 0.00 0.00 56 1012.8
20260905173942 90 159 4.0 10.0 0.00 0.00 0.00 60 1013.0
20260905172910 90 138 4.0 10.0 0.00 0.00 0.00 61 1013.2
20260905171901 90 200 5.0 13.0 0.00 0.00 0.00 60 1013.2
20260905170918 89 140 5.0 13.0 0.00 0.00 0.00 62 1013.4
20260905165853 90 138 4.0 10.0 0.00 0.00 0.00 62 1013.3
20260905164846 89 180 4.0 12.0 0.00 0.00 0.00 64 1013.4
20260905162631 88 119 3.0 10.0 0.00 0.00 0.00 67 1013.4
20260905161605 87 136 4.0 10.0 0.00 0.00 0.00 69 1013.5
20260905160550 87 141 4.0 9.0 0.00 0.00 0.00 70 1013.5
20260905155522 87 164 4.0 12.0 0.00 0.00 0.00 71 1013.5
20260905154524 86 120 5.0 12.0 0.00 0.00 0.00 71 1013.5
20260905153506 85 111 5.0 9.0 0.00 0.00 0.00 74 1013.5
20260905152507 84 139 5.0 9.0 0.00 0.00 0.00 78 1013.5
20260905145228 82 170 4.0 8.0 0.00 0.00 0.00 84 1013.6
20260905144243 81 178 4.0 9.0 0.00 0.00 0.00 86 1013.5
20260905143242 81 169 4.0 9.0 0.00 0.00 0.00 88 1013.5
20260905141147 80 117 3.0 6.0 0.00 0.00 0.00 91 1013.6
20260905140145 79 111 2.0 6.0 0.00 0.00 0.00 93 1013.7
20260905135114 78 67 1.0 4.0 0.00 0.00 0.00 94 1013.6
20260905134051 77 121 0.0 4.0 0.00 0.00 0.00 95 1013.4
20260905131916 75 146 0.0 1.0 0.00 0.03 0.00 96 1013.1
20260905130924 74 146 0.0 1.0 0.00 0.03 0.00 96 1013.1
20260905122601 73 146 0.0 0.0 0.00 0.04 0.00 95 1012.7
20260905121529 73 146 0.0 0.0 0.00 0.04 0.00 94 1012.4
20260905120536 73 146 0.0 0.0 0.00 0.04 0.00 94 1012.2
20260905115513 73 146 0.0 0.0 0.00 0.04 0.00 94 1012.1
20260905114517 74 146 0.0 0.0 0.00 0.04 0.00 95 1012.1
20260905113507 74 146 0.0 0.0 0.00 0.04 0.00 95 1012.0
20260905112434 75 146 0.0 0.0 0.00 0.04 0.00 95 1011.9
20260905111415 74 146 0.0 1.0 0.00 0.04 0.00 95 1011.7
20260905105320 74 146 0.0 0.0 0.00 0.04 0.00 93 1011.7
20260905103232 75 146 0.0 0.0 0.00 0.04 0.00 92 1011.8
20260905102249 76 146 0.0 2.0 0.00 0.04 0.00 93 1011.7
20260905094927 76 146 0.0 0.0 0.00 0.04 0.00 92 1011.9
20260905093947 76 146 0.0 0.0 0.00 0.04 0.00 92 1011.8
20260905092937 77 146 0.0 0.0 0.00 0.04 0.00 91 1011.7
20260905091925 77 146 0.0 0.0 0.00 0.04 0.00 91 1011.8
20260905090909 77 146 0.0 0.0 0.00 0.04 0.00 90 1011.8
20260905082523 78 149 1.0 3.0 0.00 0.04 0.00 89 1011.9
20260905081535 78 143 0.0 4.0 0.00 0.04 0.00 89 1011.9
20260905080523 78 166 0.0 5.0 0.00 0.04 0.00 88 1012.0
20260905075451 78 166 1.0 5.0 0.00 0.04 0.00 88 1012.1
20260905074418 78 162 1.0 4.0 0.00 0.04 0.00 88 1012.1
20260905073441 78 130 0.0 4.0 0.00 0.04 0.00 87 1012.2
20260905071257 78 108 0.0 0.0 0.00 0.04 0.00 85 1012.3
20260905070231 79 121 0.0 5.0 0.00 0.04 0.00 85 1012.2
20260905065219 79 146 1.0 5.0 0.00 0.04 0.00 84 1012.3
20260905064211 79 111 0.0 4.0 0.00 0.04 0.00 84 1012.5
20260905063209 79 130 0.0 5.0 0.00 0.04 0.00 83 1012.5
20260905062222 79 103 0.0 5.0 0.00 0.04 0.00 82 1012.5
20260905061153 79 97 0.0 0.0 0.00 0.04 0.00 82 1012.4
20260905060158 79 93 2.0 5.0 0.00 0.04 0.00 82 1012.4
20260905055141 79 86 2.0 5.0 0.00 0.04 0.00 81 1012.3
20260905054129 79 109 2.0 6.0 0.00 0.04 0.00 81 1012.5
20260905053104 79 117 2.0 6.0 0.00 0.04 0.00 81 1012.5
20260905052110 79 114 1.0 6.0 0.00 0.04 0.00 81 1012.5
20260905051047 79 95 0.0 4.0 0.00 0.04 0.00 81 1012.6
20260905050034 79 80 0.0 3.0 0.00 0.04 0.00 81 1012.6
20260905045013 79 80 0.0 3.0 0.00 0.04 0.05 81 1012.7
20260905043943 79 80 0.0 3.0 0.00 0.04 0.05 80 1012.7
20260905042922 80 80 0.0 5.0 0.00 0.04 0.05 80 1012.6
20260905040747 80 83 0.0 4.0 0.00 0.04 0.05 81 1012.4
20260905035720 80 72 0.0 3.0 0.00 0.04 0.05 81 1012.4
20260905034651 80 72 0.0 4.0 0.00 0.04 0.05 80 1012.4
20260905033641 81 55 1.0 4.0 0.00 0.04 0.05 80 1012.4
20260905031535 81 67 0.0 4.0 0.00 0.04 0.05 79 1012.4
20260905030520 81 67 0.0 4.0 0.00 0.04 0.05 79 1012.4
20260905025505 82 60 1.0 4.0 0.00 0.04 0.05 79 1012.1
20260905023409 82 73 1.0 5.0 0.00 0.04 0.05 78 1012.0
20260905022401 82 78 2.0 6.0 0.00 0.04 0.05 78 1011.8
20260905021347 83 74 2.0 6.0 0.00 0.04 0.05 77 1011.8
20260905015251 83 88 2.0 7.0 0.00 0.04 0.05 75 1011.6
20260905014248 83 86 2.0 7.0 0.00 0.04 0.05 75 1011.4
20260905013309 84 119 3.0 7.0 0.00 0.04 0.05 74 1011.4
20260905012236 84 88 2.0 6.0 0.00 0.04 0.05 73 1011.3
20260905011245 84 82 3.0 8.0 0.00 0.04 0.05 72 1011.3
20260905010228 85 88 4.0 12.0 0.00 0.04 0.05 71 1011.2
20260905005246 85 93 5.0 12.0 0.00 0.04 0.05 69 1011.2
20260905004231 86 99 6.0 12.0 0.00 0.04 0.05 67 1011.0
20260905003231 87 111 4.0 10.0 0.00 0.04 0.05 65 1011.0
20260905002220 89 111 5.0 13.0 0.00 0.04 0.05 63 1010.7
20260905001211 90 92 5.0 13.0 0.00 0.04 0.05 60 1010.6
20260905000226 92 86 3.0 8.0 0.00 0.04 0.05 52 1010.4
20260904235158 92 173 3.0 8.0 0.00 0.04 0.05 51 1010.4
20260904234124 92 124 4.0 8.0 0.00 0.04 0.05 49 1010.3
20260904232030 93 105 3.0 10.0 0.00 0.04 0.05 47 1010.4
20260904231026 93 84 4.0 9.0 0.00 0.04 0.05 48 1010.4
20260904230037 93 116 4.0 11.0 0.00 0.04 0.05 47 1010.5
20260904225007 93 52 5.0 11.0 0.00 0.04 0.05 45 1010.5
20260904223942 93 123 5.0 10.0 0.00 0.04 0.05 46 1010.4
20260904222945 93 79 5.0 10.0 0.00 0.04 0.05 45 1010.6
20260904220836 93 126 4.0 9.0 0.00 0.04 0.05 49 1010.7
20260904215825 93 105 5.0 11.0 0.00 0.04 0.05 49 1010.7
20260904213719 93 55 5.0 11.0 0.00 0.04 0.05 52 1011.0
20260904212724 93 48 5.0 11.0 0.00 0.04 0.05 53 1011.1
20260904211748 93 106 5.0 12.0 0.00 0.04 0.05 54 1011.1
20260904210747 92 140 5.0 12.0 0.00 0.04 0.05 55 1011.3
20260904204637 93 144 3.0 9.0 0.00 0.04 0.05 58 1011.5
20260904200316 91 77 5.0 10.0 0.00 0.04 0.05 58 1011.7
20260904195328 91 94 5.0 10.0 0.00 0.04 0.05 59 1011.9
20260904193125 91 126 5.0 13.0 0.00 0.04 0.05 63 1012.0
20260904192138 91 84 6.0 13.0 0.00 0.04 0.05 63 1012.1
20260904191138 91 128 6.0 11.0 0.00 0.04 0.05 63 1012.2
20260904190146 91 135 5.0 10.0 0.00 0.04 0.05 62 1012.2